This demonstration page uses our WeatherBlox Daily Observations layout. Learn more.

Left ArrowRight Arrow

Hourly Observations for May 31, 2017

Temp ( °F °C ) Dew Point ( °F °C ) Humidity (%) Winds ( mph kmh ) Pressure ( in mb ) Visibility ( mi km ) Precip ( " mm )
12:56 am 00:56 Clear 55 12.7 42 5.8 63 63 Calm 30.04 1017 10 16 0.00 0.00
1:56 am 01:56 Clear 50 9.9 44 6.4 79 79 Calm 30.04 1017 10 16 0.00 0.00
2:56 am 02:56 Clear 48 8.8 45 7.2 90 90 Calm 30.05 1018 10 16 0.00 0.00
3:56 am 03:56 Clear 46 7.9 44 6.5 91 91 Calm 30.06 1018 10 16 0.00 0.00
4:56 am 04:56 Clear 48 8.7 43 6.3 85 85 Calm 30.06 1018 10 16 0.00 0.00
5:56 am 05:56 Sunny 47 8.4 43 6 85 85 Calm 30.07 1018 10 16 0.00 0.00
6:56 am 06:56 Sunny 49 9.4 45 7.3 87 87 Calm 30.08 1019 10 16 0.00 0.00
7:56 am 07:56 Sunny 57 13.9 49 9.3 74 74 Calm 30.11 1020 10 16 0.00 0.00
8:56 am 08:56 Sunny 62 16.4 45 7.3 55 55 NE 5 7 30.12 1020 10 16 0.00 0.00
9:56 am 09:56 Sunny 67 19.3 45 7.1 45 45 ENE 3 6 30.12 1020 10 16 0.00 0.00
10:56 am 10:56 Sunny 70 21 43 6.1 38 38 N 6 9 30.11 1020 10 16 0.01 0.25
11:56 am 11:56 Sunny 72 22.1 44 6.7 37 37 ENE 5 7 30.10 1019 10 16 0.00 0.00
12:56 pm 12:56 Sunny 74 23.5 45 7.1 35 35 Calm 30.09 1019 10 16 0.00 0.00
1:56 pm 13:56 Sunny 75 23.8 44 6.5 33 33 N 6 9 30.08 1019 10 16 0.00 0.00
2:56 pm 14:56 Mostly Sunny 75 24 42 5.8 31 31 N 7 11 30.08 1019 10 16 0.00 0.00
3:56 pm 15:56 Partly Cloudy 74 23.6 43 5.9 32 32 Calm 30.08 1019 10 16 0.00 0.00
4:56 pm 16:56 Partly Cloudy 75 23.9 46 7.5 35 35 Calm 30.06 1018 10 16 0.00 0.00
5:56 pm 17:56 Mostly Sunny 74 23.3 46 7.8 37 37 NE 5 7 30.05 1018 10 16 0.00 0.00
6:56 pm 18:56 Partly Cloudy 72 22.3 51 10.4 47 47 Calm 30.04 1017 10 16 0.00 0.00
7:56 pm 19:56 Mostly Cloudy 70 21.2 45 7.4 41 41 SSE 5 7 30.03 1017 10 16 0.00 0.00
8:56 pm 20:56 Mostly Cloudy 66 19 52 11.1 60 60 E 5 7 30.01 1016 10 16 0.00 0.00
9:56 pm 21:56 Cloudy 65 18.1 53 11.9 67 67 Calm 30.04 1017 10 16 0.00 0.00
10:56 pm 22:56 Clear 58 14.3 53 11.8 85 85 Calm N/A 10 16 0.00 0.00
11:56 pm 23:56 Clear N/A N/A N/A Calm N/A 10 16 0.00 0.00

Powered by AerisWeather